• In Deutschland
  • Länderverzeichnis
  • Für 7 Tage
  • Wassertemperatur
  • Satellitenkarten
  • Wetterkarte
  • Widgets
  • user-avatar
    Anmelden

    Stündliche Wetter Halberstadt

    Heute, 16 Juli, Montag

    Zeit Temperatur Niederschläge Wind Luftdruck Luftfeuchtigkeit
    00:00 +16°C° 0 mm 2 m/S 751 mmHg 85%
    01:00 +15°C° 0 mm 1 m/S 751 mmHg 88%
    02:00 +15°C° 0 mm 1 m/S 751 mmHg 89%
    03:00 +14°C° 0 mm 1 m/S 751 mmHg 90%
    04:00 +14°C° 0 mm 1 m/S 751 mmHg 92%
    05:00 +16°C° 0 mm 1 m/S 751 mmHg 87%
    06:00 +18°C° 0 mm 1 m/S 751 mmHg 83%
    07:00 +20°C° 0 mm 1 m/S 751 mmHg 78%
    08:00 +21°C° 0 mm 1 m/S 751 mmHg 72%
    09:00 +23°C° 0 mm 2 m/S 751 mmHg 65%
    10:00 +25°C° 0 mm 2 m/S 750 mmHg 58%
    11:00 +26°C° 0 mm 2 m/S 750 mmHg 54%
    12:00 +27°C° 0 mm 2 m/S 750 mmHg 49%
    13:00 +27°C° 0 mm 2 m/S 749 mmHg 45%
    14:00 +28°C° 0 mm 2 m/S 749 mmHg 44%
    15:00 +28°C° 0 mm 2 m/S 749 mmHg 43%
    16:00 +28°C° 0 mm 1 m/S 749 mmHg 42%
    17:00 +27°C° 0 mm 1 m/S 749 mmHg 47%
    18:00 +26°C° 0 mm 1 m/S 749 mmHg 51%
    19:00 +25°C° 0 mm 1 m/S 749 mmHg 56%
    20:00 +24°C° 0 mm 1 m/S 749 mmHg 59%
    21:00 +22°C° 0 mm 1 m/S 749 mmHg 63%
    22:00 +20°C° 0 mm 1 m/S 749 mmHg 66%
    23:00 +20°C° 0 mm 1 m/S 749 mmHg 70%

    Morgen, 17 Juli, Dienstag

    Zeit Temperatur Niederschläge Wind Luftdruck Luftfeuchtigkeit
    00:00 +19°C° 0 mm 1 m/S 749 mmHg 74%
    01:00 +18°C° 0 mm 1 m/S 749 mmHg 78%
    02:00 +18°C° 0 mm 1 m/S 749 mmHg 80%
    03:00 +16°C° 0 mm 1 m/S 749 mmHg 82%
    04:00 +16°C° 0 mm 1 m/S 749 mmHg 85%
    05:00 +19°C° 0 mm 1 m/S 749 mmHg 80%
    06:00 +20°C° 0 mm 1 m/S 749 mmHg 76%
    07:00 +22°C° 0 mm 1 m/S 749 mmHg 71%
    08:00 +23°C° 0 mm 2 m/S 749 mmHg 64%
    09:00 +25°C° 0 mm 2 m/S 749 mmHg 56%
    10:00 +27°C° 0 mm 2 m/S 749 mmHg 49%
    11:00 +28°C° 0 mm 3 m/S 749 mmHg 46%
    12:00 +28°C° 0 mm 3 m/S 749 mmHg 44%
    13:00 +29°C° 0 mm 3 m/S 749 mmHg 41%
    14:00 +29°C° 0 mm 3 m/S 749 mmHg 41%
    15:00 +29°C° 0 mm 3 m/S 748 mmHg 41%
    16:00 +29°C° 0 mm 3 m/S 748 mmHg 41%
    17:00 +28°C° 0 mm 3 m/S 748 mmHg 46%
    18:00 +27°C° 0 mm 2 m/S 749 mmHg 50%
    19:00 +26°C° 0 mm 2 m/S 749 mmHg 55%
    20:00 +25°C° 0 mm 2 m/S 749 mmHg 58%
    21:00 +23°C° 0 mm 1 m/S 749 mmHg 62%
    22:00 +21°C° 0 mm 1 m/S 749 mmHg 65%
    23:00 +21°C° 0 mm 1 m/S 749 mmHg 67%

    übermorgen, 18 Juli, Mittwoch

    Zeit Temperatur Niederschläge Wind Luftdruck Luftfeuchtigkeit
    00:00 +19°C° 0 mm 2 m/S 749 mmHg 69%
    01:00 +19°C° 0 mm 2 m/S 749 mmHg 71%
    02:00 +18°C° 0 mm 2 m/S 749 mmHg 74%
    03:00 +18°C° 0 mm 2 m/S 750 mmHg 77%
    04:00 +17°C° 0 mm 2 m/S 750 mmHg 80%
    05:00 +18°C° 0 mm 3 m/S 750 mmHg 78%
    06:00 +19°C° 0 mm 4 m/S 750 mmHg 77%
    07:00 +20°C° 0 mm 4 m/S 750 mmHg 76%
    08:00 +21°C° 0 mm 4 m/S 751 mmHg 70%
    09:00 +23°C° 0 mm 5 m/S 751 mmHg 65%
    10:00 +25°C° 0 mm 5 m/S 751 mmHg 59%
    11:00 +26°C° 0 mm 5 m/S 751 mmHg 55%
    12:00 +26°C° 0 mm 5 m/S 751 mmHg 51%
    13:00 +27°C° 0 mm 5 m/S 751 mmHg 47%
    14:00 +27°C° 0 mm 5 m/S 751 mmHg 47%
    15:00 +27°C° 0 mm 5 m/S 751 mmHg 46%
    16:00 +27°C° 0 mm 5 m/S 751 mmHg 45%
    17:00 +26°C° 0 mm 4 m/S 751 mmHg 50%
    18:00 +25°C° 0 mm 4 m/S 751 mmHg 55%
    19:00 +24°C° 0 mm 3 m/S 751 mmHg 60%
    20:00 +21°C° 0 mm 3 m/S 752 mmHg 66%
    21:00 +20°C° 0 mm 3 m/S 752 mmHg 71%
    22:00 +18°C° 0 mm 3 m/S 752 mmHg 77%
    23:00 +17°C° 0 mm 2 m/S 752 mmHg 80%

    19 Juli, Donnerstag

    Zeit Temperatur Niederschläge Wind Luftdruck Luftfeuchtigkeit
    00:00 +15°C° 0 mm 2 m/S 753 mmHg 83%
    01:00 +14°C° 0 mm 2 m/S 753 mmHg 86%
    02:00 +14°C° 0 mm 2 m/S 753 mmHg 87%
    03:00 +13°C° 0 mm 2 m/S 753 mmHg 88%
    04:00 +12°C° 0 mm 2 m/S 753 mmHg 89%
    05:00 +14°C° 0 mm 2 m/S 753 mmHg 82%
    06:00 +15°C° 0 mm 2 m/S 753 mmHg 75%
    07:00 +18°C° 0 mm 1 m/S 753 mmHg 68%
    08:00 +19°C° 0 mm 2 m/S 753 mmHg 60%
    09:00 +21°C° 0 mm 2 m/S 753 mmHg 52%
    10:00 +24°C° 0 mm 2 m/S 753 mmHg 44%
    11:00 +25°C° 0 mm 2 m/S 753 mmHg 41%
    12:00 +26°C° 0 mm 2 m/S 753 mmHg 38%
    13:00 +27°C° 0 mm 2 m/S 752 mmHg 35%
    14:00 +27°C° 0 mm 1 m/S 752 mmHg 35%
    15:00 +28°C° 0 mm 1 m/S 752 mmHg 34%
    16:00 +28°C° 0 mm 1 m/S 752 mmHg 34%
    17:00 +27°C° 0 mm 1 m/S 752 mmHg 39%
    18:00 +26°C° 0 mm 1 m/S 752 mmHg 43%
    19:00 +25°C° 0 mm 1 m/S 752 mmHg 48%
    20:00 +23°C° 0 mm 1 m/S 752 mmHg 53%
    21:00 +21°C° 0 mm 1 m/S 752 mmHg 58%
    22:00 +19°C° 0 mm 1 m/S 752 mmHg 62%
    23:00 +18°C° 0 mm 1 m/S 752 mmHg 66%

    20 Juli, Freitag

    Zeit Temperatur Niederschläge Wind Luftdruck Luftfeuchtigkeit
    00:00 +16°C° 0 mm 1 m/S 751 mmHg 71%
    01:00 +16°C° 0 mm 1 m/S 751 mmHg 75%
    02:00 +15°C° 0 mm 1 m/S 751 mmHg 76%
    03:00 +15°C° 0 mm 1 m/S 751 mmHg 77%
    04:00 +15°C° 0 mm 1 m/S 751 mmHg 78%
    05:00 +16°C° 0 mm 1 m/S 751 mmHg 73%
    06:00 +19°C° 0 mm 1 m/S 751 mmHg 68%
    07:00 +20°C° 0 mm 1 m/S 750 mmHg 64%
    08:00 +21°C° 0 mm 2 m/S 750 mmHg 58%
    09:00 +24°C° 0 mm 2 m/S 750 mmHg 52%
    10:00 +26°C° 0 mm 2 m/S 750 mmHg 46%
    11:00 +26°C° 0 mm 2 m/S 750 mmHg 45%
    12:00 +27°C° 0 mm 2 m/S 750 mmHg 44%
    13:00 +27°C° 0 mm 3 m/S 749 mmHg 44%
    14:00 +27°C° 0 mm 2 m/S 749 mmHg 47%
    15:00 +26°C° 0 mm 2 m/S 749 mmHg 51%
    16:00 +25°C° 0 mm 2 m/S 748 mmHg 55%
    17:00 +25°C° 0 mm 2 m/S 748 mmHg 58%
    18:00 +24°C° 0 mm 2 m/S 748 mmHg 61%
    19:00 +24°C° 0 mm 1 m/S 747 mmHg 64%
    20:00 +23°C° 0,1 mm 2 m/S 747 mmHg 68%
    21:00 +20°C° 0,1 mm 2 m/S 747 mmHg 72%
    22:00 +19°C° 0,1 mm 2 m/S 747 mmHg 76%
    23:00 +19°C° 0,2 mm 2 m/S 747 mmHg 79%

    21 Juli, Samstag

    Zeit Temperatur Niederschläge Wind Luftdruck Luftfeuchtigkeit
    00:00 +18°C° 0,2 mm 2 m/S 747 mmHg 82%
    01:00 +18°C° 0,2 mm 2 m/S 746 mmHg 84%
    02:00 +18°C° 0 mm 2 m/S 746 mmHg 84%
    03:00 +17°C° 0 mm 2 m/S 746 mmHg 85%
    04:00 +17°C° 0 mm 2 m/S 746 mmHg 85%
    05:00 +18°C° 0 mm 2 m/S 746 mmHg 82%
    06:00 +19°C° 0 mm 2 m/S 745 mmHg 80%
    07:00 +20°C° 0 mm 2 m/S 745 mmHg 77%
    08:00 +21°C° 0,1 mm 2 m/S 745 mmHg 74%
    09:00 +23°C° 0,1 mm 2 m/S 745 mmHg 70%
    10:00 +25°C° 0,1 mm 2 m/S 745 mmHg 67%
    11:00 +25°C° 0,2 mm 2 m/S 745 mmHg 67%
    12:00 +25°C° 0,2 mm 2 m/S 745 mmHg 66%
    13:00 +26°C° 0,2 mm 2 m/S 745 mmHg 66%
    14:00 +26°C° 0,4 mm 2 m/S 745 mmHg 67%
    15:00 +26°C° 0,4 mm 2 m/S 745 mmHg 67%
    16:00 +26°C° 0,4 mm 3 m/S 745 mmHg 68%
    17:00 +25°C° 0,9 mm 2 m/S 745 mmHg 73%
    18:00 +24°C° 0,9 mm 2 m/S 745 mmHg 78%
    19:00 +23°C° 0,9 mm 2 m/S 745 mmHg 83%
    20:00 +21°C° 0,6 mm 2 m/S 745 mmHg 85%
    21:00 +21°C° 0,6 mm 1 m/S 745 mmHg 88%
    22:00 +20°C° 0,6 mm 1 m/S 746 mmHg 91%
    23:00 +20°C° 0,3 mm 1 m/S 746 mmHg 92%
    Mehr zeigen